WetterOnline ( https://www.wetteronline.de )

Wetter aktuell Bad Hersfeld

Aktuelles Wetter: Bad Hersfeld (273m)

6-stündlich | Neueste Meldungen
Ortszeit Temperatur Wetter
Mi, 22.09. 2:00 6.5° C wolkig
Di, 21.09. 20:00 11.0° C bedeckt
Di, 21.09. 14:00 15.2° C bedeckt
Di, 21.09. 8:00 5.2° C bedeckt
Di, 21.09. 2:00 4.8° C wolkenlos
Mo, 20.09. 20:00 11.0° C bedeckt
Mo, 20.09. 14:00 13.5° C bedeckt
Mo, 20.09. 8:00 7.5° C bedeckt
Ortszeit Temperatur Wetter
Mi, 22.09. 7:30 5.4° C wolkig
Mi, 22.09. 7:20 5.4° C wolkig
Mi, 22.09. 7:10 5.6° C wolkig
Mi, 22.09. 7:00 5.7° C wolkig
Mi, 22.09. 6:50 5.7° C wolkig
Mi, 22.09. 6:40 5.8° C wolkig
Mi, 22.09. 6:30 5.6° C -
Mi, 22.09. 6:00 6.1° C wolkig
Mi, 22.09. 5:30 6.2° C -
Mi, 22.09. 5:00 6.5° C -
Mi, 22.09. 4:30 7.2° C bedeckt
Ortszeit Relative Feuchte Sichtweite
Mi, 22.09. 2:00 97% 20 km
Di, 21.09. 20:00 80% 60 km
Di, 21.09. 14:00 48% 55 km
Di, 21.09. 8:00 96% 23 km
Di, 21.09. 2:00 94% 27 km
Mo, 20.09. 20:00 66% >70 km
Mo, 20.09. 14:00 60% 45 km
Mo, 20.09. 8:00 91% 17 km
Ortszeit Relative Feuchte Sichtweite
Mi, 22.09. 7:30 98% 6 km
Mi, 22.09. 7:20 98% -
Mi, 22.09. 7:10 97% -
Mi, 22.09. 7:00 98% 17 km
Mi, 22.09. 6:50 98% -
Mi, 22.09. 6:40 99% -
Mi, 22.09. 6:30 99% 11 km
Mi, 22.09. 6:00 99% 13 km
Mi, 22.09. 5:30 99% 13 km
Mi, 22.09. 5:00 97% 14 km
Mi, 22.09. 4:30 98% 17 km
Ortszeit Niederschlagsmenge Niederschlagsart
Mi, 22.09. 2:00 0.0 l/m2 in 6 Std. -
Di, 21.09. 20:00 0.0 l/m2 in 12 Std. -
Di, 21.09. 14:00 0.0 l/m2 in 6 Std. -
Di, 21.09. 8:00 0.0 l/m2 in 12 Std. -
Di, 21.09. 2:00 0.0 l/m2 in 6 Std. -
Mo, 20.09. 20:00 0.0 l/m2 in 12 Std. -
Mo, 20.09. 14:00 0.0 l/m2 in 6 Std. -
Mo, 20.09. 8:00 0.0 l/m2 in 12 Std. -
Ortszeit Niederschlagsmenge Niederschlagsart
Mi, 22.09. 7:30 0.0 l/m2 in 1 Std. -
Mi, 22.09. 7:20 keine Meldung -
Mi, 22.09. 7:10 keine Meldung -
Mi, 22.09. 7:00 0.0 l/m2 in 1 Std. -
Mi, 22.09. 6:50 keine Meldung -
Mi, 22.09. 6:40 keine Meldung -
Mi, 22.09. 6:30 0.0 l/m2 in 1 Std. -
Mi, 22.09. 6:00 0.0 l/m2 in 1 Std. -
Mi, 22.09. 5:30 0.0 l/m2 in 1 Std. -
Mi, 22.09. 5:00 0.0 l/m2 in 1 Std. -
Mi, 22.09. 4:30 0.0 l/m2 in 1 Std. -
Ortszeit Stärke Spitze Richtung
km/h Bft. km/h Grad Sektor
Mi, 22.09. 2:00 4 1 7 40° NO
Di, 21.09. 20:00 4 1 14 70° O
Di, 21.09. 14:00 9 2 19 340° N
Di, 21.09. 8:00 2 1 6 20° N
Di, 21.09. 2:00 4 1 14 80° O
Mo, 20.09. 20:00 9 2 20 50° NO
Mo, 20.09. 14:00 11 2 25 70° O
Mo, 20.09. 8:00 0 0 11 - -
Ortszeit Stärke Spitze Richtung
km/h Bft. km/h Grad Sektor
Mi, 22.09. 7:30 0 0 4 - -
Mi, 22.09. 7:20 0 0 - 230° SW
Mi, 22.09. 7:10 2 1 - 60° NO
Mi, 22.09. 7:00 4 1 4 350° N
Mi, 22.09. 6:50 4 1 - 350° N
Mi, 22.09. 6:40 4 1 - 70° O
Mi, 22.09. 6:30 2 1 4 260° W
Mi, 22.09. 6:00 0 0 4 - -
Mi, 22.09. 5:30 0 0 4 - -
Mi, 22.09. 5:00 2 1 4 240° SW
Mi, 22.09. 4:30 0 0 4 - -
Ortszeit Untergrenze Bedeckung Gattung
total tief tief mittel hoch
Mi, 22.09. 2:00 9000 m 8/8 0/8 - - -
Di, 21.09. 20:00 6600 m 8/8 8/8 - - -
Di, 21.09. 14:00 1380 m 8/8 8/8 - - -
Di, 21.09. 8:00 1500 m 8/8 8/8 - - -
Di, 21.09. 2:00 - 0/8 0/8 - - -
Mo, 20.09. 20:00 1380 m 8/8 8/8 - - -
Mo, 20.09. 14:00 1320 m 8/8 8/8 - - -
Mo, 20.09. 8:00 1110 m 8/8 8/8 - - -
Ortszeit Bedeckungsgrad in Achtel und Wolkenuntergrenze
Mi, 22.09. 7:30 2(30m) 7(4500m) 8(10500m)
Mi, 22.09. 7:20 2(30m) 7(4500m) 8(10500m)
Mi, 22.09. 7:10 2(30m) 7(9000m) 8(10500m)
Mi, 22.09. 7:00 8(9000m) 3(480m) 8(9000m)
Mi, 22.09. 6:50 8(9000m)
Mi, 22.09. 6:40 8(9000m)
Mi, 22.09. 6:30 -
Mi, 22.09. 6:00 8(9000m)
Mi, 22.09. 5:30 -
Mi, 22.09. 5:00 -
Mi, 22.09. 4:30 8(810m) 8(9000m) 8(10500m)
Ortszeit Luftdruck NN (hPa) Tendenz (hPa in 3 Std.)
Mi, 22.09. 2:00 1031 - 0,5
Di, 21.09. 20:00 1030 + 0,7
Di, 21.09. 14:00 1030 + 0,1
Di, 21.09. 8:00 1029 + 1,4
Di, 21.09. 2:00 1027 + 1,0
Mo, 20.09. 20:00 1024 + 1,4
Mo, 20.09. 14:00 1021 + 0,5
Mo, 20.09. 8:00 1020 + 0,8
Ortszeit Luftdruck NN (hPa) Tendenz (hPa in 3 Std.)
Mi, 22.09. 7:30 1031 + 0,3
Mi, 22.09. 7:20 1031 keine Meldung
Mi, 22.09. 7:10 1031 keine Meldung
Mi, 22.09. 7:00 1031 + 0,1
Mi, 22.09. 6:50 1031 keine Meldung
Mi, 22.09. 6:40 1030 keine Meldung
Mi, 22.09. 6:30 1030 - 0,1
Mi, 22.09. 6:00 1030 - 0,4
Mi, 22.09. 5:30 1030 - 0,5
Mi, 22.09. 5:00 1030 - 0,7
Mi, 22.09. 4:30 1030 - 0,7
Ortszeit Schneehöhe (cm)
Mi, 22.09. 2:00 -
Di, 21.09. 20:00 -
Di, 21.09. 14:00 -
Di, 21.09. 8:00 -
Di, 21.09. 2:00 -
Mo, 20.09. 20:00 -
Mo, 20.09. 14:00 -
Mo, 20.09. 8:00 -
Ortszeit Schneehöhe (cm)
Mi, 22.09. 7:30 -
Mi, 22.09. 7:20 -
Mi, 22.09. 7:10 -
Mi, 22.09. 7:00 -
Mi, 22.09. 6:50 -
Mi, 22.09. 6:40 -
Mi, 22.09. 6:30 -
Mi, 22.09. 6:00 -
Mi, 22.09. 5:30 -
Mi, 22.09. 5:00 -
Mi, 22.09. 4:30 -
Link zu dieser Seite / Seite empfehlen

Das Wetter in ...